SWA1312 KCMH-KDCA

Flight info

Callsign SWA1312
Flight time 1h 5m
Altitude 29000
Route OWEBO AIR BUCKO FRDMM6
Aircraft B38M/M-SDE1FGHILORVWXY/HB1

Departure

Time 2026-04-22 23:48
Airport John Glenn Columbus International Airport (KCMH)

Arrival

Time 2026-04-23 00:53
Airport Ronald Reagan Washington National Airport (KDCA)
Time Latitude Longitude Altitude Speed Heading
2026-04-22 23:22 39.99658 -82.88608 819 ft 0 kts 22°
2026-04-22 23:34 39.99654 -82.88610 822 ft 2 kts 22°
2026-04-22 23:34 39.99638 -82.88618 822 ft 2 kts 22°
2026-04-22 23:35 39.99622 -82.88627 822 ft 3 kts 41°
2026-04-22 23:35 39.99614 -82.88643 821 ft 0 kts 91°
2026-04-22 23:39 39.99613 -82.88619 819 ft 6 kts 95°
2026-04-22 23:39 39.99612 -82.88614 820 ft 0 kts 95°
2026-04-22 23:40 39.99612 -82.88612 820 ft 0 kts 95°
2026-04-22 23:40 39.99612 -82.88610 818 ft 4 kts 97°
2026-04-22 23:40 39.99595 -82.88490 820 ft 14 kts 96°
2026-04-22 23:40 39.99584 -82.88373 819 ft 12 kts 107°
2026-04-22 23:41 39.99536 -82.88322 818 ft 8 kts 169°
2026-04-22 23:41 39.99487 -82.88320 820 ft 7 kts 180°
2026-04-22 23:41 39.99444 -82.88323 821 ft 7 kts 182°
2026-04-22 23:41 39.99398 -82.88281 821 ft 12 kts 110°
2026-04-22 23:42 39.99386 -82.88144 822 ft 18 kts 94°
2026-04-22 23:42 39.99377 -82.87998 823 ft 13 kts 95°
2026-04-22 23:42 39.99370 -82.87883 823 ft 13 kts 94°
2026-04-22 23:42 39.99363 -82.87754 824 ft 15 kts 93°
2026-04-22 23:43 39.99357 -82.87614 824 ft 16 kts 94°
2026-04-22 23:43 39.99347 -82.87455 822 ft 18 kts 95°
2026-04-22 23:43 39.99318 -82.87336 821 ft 11 kts 140°
2026-04-22 23:43 39.99271 -82.87320 820 ft 4 kts 183°
2026-04-22 23:44 39.99263 -82.87321 820 ft 1 kts 182°
2026-04-22 23:44 39.99240 -82.87321 820 ft 1 kts 175°
2026-04-22 23:44 39.99232 -82.87321 820 ft 1 kts 181°
2026-04-22 23:44 39.99223 -82.87323 820 ft 2 kts 188°
2026-04-22 23:45 39.99209 -82.87329 820 ft 3 kts 203°
2026-04-22 23:45 39.99192 -82.87345 820 ft 2 kts 221°
2026-04-22 23:45 39.99191 -82.87345 820 ft 0 kts 222°
2026-04-22 23:46 39.99173 -82.87369 818 ft 4 kts 232°
2026-04-22 23:46 39.99165 -82.87425 820 ft 14 kts 269°
2026-04-22 23:46 39.99175 -82.87597 817 ft 25 kts 275°
2026-04-22 23:46 39.99193 -82.88009 821 ft 73 kts 271°
2026-04-22 23:47 39.99241 -82.88892 821 ft 121 kts 274°
2026-04-22 23:47 39.99314 -82.90157 839 ft 154 kts 266°
2026-04-22 23:47 39.99368 -82.91576 1051 ft 159 kts 269°
2026-04-22 23:47 39.99527 -82.93018 1381 ft 163 kts 284°
2026-04-22 23:48 39.99957 -82.94355 1861 ft 153 kts 291°
2026-04-22 23:48 40.00296 -82.95721 2132 ft 166 kts 284°
2026-04-22 23:48 40.00545 -82.97122 2817 ft 155 kts 279°
2026-04-22 23:48 40.00716 -82.98549 3219 ft 167 kts 276°
2026-04-22 23:49 40.00832 -83.00060 3728 ft 166 kts 277°
2026-04-22 23:49 40.01138 -83.01537 4133 ft 173 kts 292°
2026-04-22 23:49 40.01723 -83.02829 4900 ft 156 kts 305°
2026-04-22 23:49 40.02460 -83.03875 5151 ft 173 kts 313°
2026-04-22 23:50 40.03483 -83.05060 4052 ft 188 kts 320°
2026-04-22 23:50 40.04574 -83.06080 3538 ft 201 kts 335°
2026-04-22 23:50 40.05703 -83.06081 5124 ft 158 kts 14°
2026-04-22 23:50 40.06826 -83.05304 4554 ft 213 kts 22°
2026-04-22 23:51 40.08187 -83.04400 4419 ft 219 kts 22°
2026-04-22 23:51 40.09596 -83.03467 4812 ft 236 kts 22°
2026-04-22 23:51 40.11129 -83.02467 5210 ft 256 kts 22°
2026-04-22 23:51 40.12756 -83.01416 5596 ft 263 kts 22°
2026-04-22 23:52 40.14413 -83.00346 5986 ft 268 kts 22°
2026-04-22 23:52 40.15936 -82.98973 6366 ft 275 kts 48°
2026-04-22 23:52 40.16687 -82.96664 6750 ft 283 kts 85°
2026-04-22 23:52 40.16381 -82.94150 7150 ft 288 kts 110°
2026-04-22 23:53 40.15632 -82.91727 7539 ft 288 kts 112°
2026-04-22 23:53 40.14975 -82.89252 7920 ft 289 kts 103°
2026-04-22 23:53 40.14674 -82.86658 8318 ft 290 kts 92°
2026-04-22 23:53 40.14624 -82.84017 8708 ft 291 kts 89°
2026-04-22 23:54 40.14557 -82.81367 9099 ft 293 kts 92°
2026-04-22 23:54 40.14389 -82.78711 9493 ft 294 kts 94°
2026-04-22 23:54 40.14208 -82.76064 9884 ft 290 kts 93°
2026-04-22 23:54 40.14057 -82.73411 10250 ft 294 kts 92°
2026-04-22 23:55 40.13914 -82.70744 10614 ft 297 kts 92°
2026-04-22 23:55 40.13760 -82.68056 10974 ft 297 kts 92°
2026-04-22 23:55 40.13601 -82.65362 11338 ft 298 kts 92°
2026-04-22 23:55 40.13442 -82.62647 11712 ft 301 kts 92°
2026-04-22 23:56 40.13285 -82.59946 12084 ft 303 kts 92°
2026-04-22 23:56 40.13124 -82.57198 12464 ft 304 kts 92°
2026-04-22 23:56 40.12961 -82.54439 12858 ft 306 kts 92°
2026-04-22 23:56 40.12796 -82.51656 13242 ft 308 kts 92°
2026-04-22 23:57 40.12630 -82.48853 13633 ft 310 kts 92°
2026-04-22 23:57 40.12462 -82.46047 14003 ft 311 kts 92°
2026-04-22 23:57 40.12293 -82.43217 14360 ft 313 kts 92°
2026-04-22 23:57 40.12122 -82.40375 14718 ft 315 kts 92°
2026-04-22 23:58 40.11950 -82.37518 15080 ft 317 kts 92°
2026-04-22 23:58 40.11775 -82.34640 15453 ft 319 kts 92°
2026-04-22 23:58 40.11599 -82.31750 15823 ft 320 kts 92°
2026-04-22 23:58 40.11422 -82.28848 16199 ft 322 kts 92°
2026-04-22 23:59 40.11243 -82.25925 16577 ft 324 kts 92°
2026-04-22 23:59 40.11061 -82.22981 16964 ft 326 kts 92°
2026-04-22 23:59 40.10878 -82.20025 17354 ft 328 kts 92°
2026-04-22 23:59 40.10696 -82.17093 17743 ft 329 kts 92°
2026-04-23 00:00 40.10318 -82.11045 18521 ft 334 kts 91°
2026-04-23 00:00 40.10127 -82.08017 18867 ft 336 kts 91°
2026-04-23 00:00 40.09936 -82.05001 19206 ft 339 kts 91°
2026-04-23 00:01 40.09741 -82.01925 19570 ft 341 kts 91°
2026-04-23 00:01 40.09544 -81.98835 19931 ft 343 kts 91°
2026-04-23 00:01 40.09345 -81.95724 20290 ft 345 kts 91°
2026-04-23 00:01 40.09144 -81.92590 20670 ft 348 kts 91°
2026-04-23 00:02 40.08940 -81.89429 21043 ft 350 kts 91°
2026-04-23 00:02 40.08733 -81.86243 21407 ft 353 kts 91°
2026-04-23 00:02 40.08524 -81.83040 21781 ft 355 kts 91°
2026-04-23 00:02 40.08314 -81.79822 22170 ft 358 kts 91°
2026-04-23 00:03 40.08100 -81.76568 22560 ft 361 kts 91°
2026-04-23 00:03 40.07887 -81.73338 22961 ft 363 kts 91°
2026-04-23 00:03 40.07670 -81.70052 23363 ft 366 kts 91°
2026-04-23 00:03 40.07455 -81.66720 23741 ft 369 kts 91°
2026-04-23 00:04 40.07245 -81.63383 24086 ft 370 kts 90°
2026-04-23 00:04 40.07031 -81.60026 24431 ft 372 kts 90°
2026-04-23 00:04 40.06810 -81.56644 24781 ft 374 kts 90°
2026-04-23 00:04 40.06589 -81.53254 25137 ft 376 kts 90°
2026-04-23 00:05 40.06367 -81.49847 25498 ft 378 kts 90°
2026-04-23 00:05 40.06142 -81.46417 25860 ft 380 kts 90°
2026-04-23 00:05 40.05915 -81.42980 26226 ft 381 kts 90°
2026-04-23 00:05 40.05689 -81.39576 26591 ft 382 kts 90°
2026-04-23 00:06 40.05460 -81.36128 26966 ft 383 kts 90°
2026-04-23 00:06 40.05229 -81.32664 27345 ft 383 kts 90°
2026-04-23 00:06 40.04996 -81.29196 27726 ft 383 kts 90°
2026-04-23 00:06 40.04762 -81.25733 28124 ft 383 kts 89°
2026-04-23 00:07 40.04527 -81.22270 28512 ft 383 kts 89°
2026-04-23 00:07 40.04292 -81.18818 28905 ft 382 kts 89°
2026-04-23 00:07 40.04057 -81.15351 29032 ft 389 kts 89°
2026-04-23 00:08 40.03585 -81.08455 29048 ft 403 kts 89°
2026-04-23 00:08 40.03074 -81.01179 29052 ft 403 kts 89°
2026-04-23 00:09 40.02567 -80.93899 29044 ft 403 kts 90°
2026-04-23 00:09 40.02051 -80.86624 29041 ft 402 kts 89°
2026-04-23 00:09 40.01714 -80.83008 29043 ft 407 kts 101°
2026-04-23 00:10 40.00522 -80.79674 29075 ft 419 kts 124°
2026-04-23 00:10 39.96458 -80.74194 29050 ft 421 kts 137°
2026-04-23 00:11 39.92325 -80.68824 29052 ft 419 kts 129°
2026-04-23 00:11 39.88431 -80.63179 29055 ft 420 kts 132°
2026-04-23 00:12 39.84371 -80.57702 29044 ft 420 kts 131°
2026-04-23 00:12 39.80421 -80.52161 29051 ft 421 kts 131°
2026-04-23 00:13 39.76395 -80.46646 29047 ft 420 kts 131°
2026-04-23 00:13 39.72398 -80.41121 29043 ft 420 kts 131°
2026-04-23 00:14 39.68385 -80.35613 29047 ft 420 kts 131°
2026-04-23 00:14 39.64369 -80.30099 29060 ft 420 kts 131°
2026-04-23 00:15 39.60352 -80.24597 29049 ft 419 kts 131°
2026-04-23 00:15 39.56365 -80.19144 29050 ft 419 kts 131°
2026-04-23 00:16 39.52279 -80.13563 29076 ft 438 kts 131°
2026-04-23 00:16 39.50156 -80.10669 29073 ft 449 kts 131°
2026-04-23 00:16 39.47976 -80.07703 29078 ft 459 kts 131°
2026-04-23 00:16 39.45747 -80.04671 29080 ft 470 kts 131°
2026-04-23 00:17 39.43470 -80.01576 29088 ft 480 kts 131°
2026-04-23 00:17 39.38766 -79.95193 29087 ft 500 kts 132°
2026-04-23 00:18 39.33890 -79.88592 29088 ft 511 kts 131°
2026-04-23 00:18 39.29301 -79.81703 29115 ft 507 kts 115°
2026-04-23 00:18 39.28124 -79.77484 29110 ft 498 kts 96°
2026-04-23 00:19 39.27757 -79.73076 29102 ft 491 kts 86°
2026-04-23 00:19 39.27843 -79.64232 29098 ft 489 kts 84°
2026-04-23 00:20 39.27425 -79.55627 29073 ft 472 kts 93°
2026-04-23 00:20 39.26924 -79.51488 28761 ft 463 kts 94°
2026-04-23 00:20 39.26494 -79.47416 28410 ft 454 kts 91°
2026-04-23 00:20 39.26237 -79.43399 28064 ft 447 kts 89°
2026-04-23 00:21 39.25981 -79.39371 27754 ft 453 kts 91°
2026-04-23 00:21 39.25626 -79.35328 27446 ft 454 kts 92°
2026-04-23 00:21 39.25245 -79.31290 27143 ft 453 kts 92°
2026-04-23 00:21 39.24914 -79.27249 26834 ft 453 kts 91°
2026-04-23 00:22 39.24607 -79.23204 26540 ft 452 kts 91°
2026-04-23 00:22 39.24273 -79.19212 26227 ft 445 kts 92°
2026-04-23 00:22 39.23921 -79.15287 25900 ft 437 kts 92°
2026-04-23 00:22 39.23590 -79.11465 25565 ft 430 kts 92°
2026-04-23 00:23 39.23274 -79.07658 25241 ft 426 kts 92°
2026-04-23 00:23 39.22954 -79.03851 24939 ft 426 kts 92°
2026-04-23 00:23 39.22624 -79.00069 24635 ft 423 kts 92°
2026-04-23 00:23 39.22294 -78.96308 24321 ft 421 kts 92°
2026-04-23 00:24 39.21955 -78.92575 24071 ft 417 kts 93°
2026-04-23 00:24 39.21587 -78.88884 24058 ft 417 kts 93°
2026-04-23 00:24 39.21217 -78.85156 23885 ft 421 kts 93°
2026-04-23 00:24 39.20858 -78.81413 23444 ft 419 kts 93°
2026-04-23 00:25 39.20503 -78.77703 22955 ft 415 kts 93°
2026-04-23 00:25 39.20143 -78.74024 22470 ft 412 kts 94°
2026-04-23 00:25 39.19783 -78.70374 22002 ft 409 kts 94°
2026-04-23 00:25 39.19432 -78.66805 21519 ft 404 kts 93°
2026-04-23 00:26 39.19082 -78.63256 20945 ft 397 kts 93°
2026-04-23 00:26 39.18734 -78.59710 20367 ft 398 kts 94°
2026-04-23 00:26 39.18385 -78.56186 19792 ft 394 kts 93°
2026-04-23 00:26 39.18037 -78.52701 19240 ft 392 kts 94°
2026-04-23 00:27 39.17690 -78.49224 18663 ft 390 kts 94°
2026-04-23 00:27 39.17345 -78.45768 18082 ft 387 kts 94°
2026-04-23 00:27 39.17001 -78.42350 17438 ft 383 kts 94°
2026-04-23 00:27 39.16661 -78.38967 16813 ft 379 kts 94°
2026-04-23 00:28 39.16191 -78.35637 16214 ft 378 kts 103°
2026-04-23 00:28 39.15418 -78.32389 15694 ft 380 kts 105°
2026-04-23 00:28 39.14580 -78.29170 15297 ft 377 kts 105°
2026-04-23 00:28 39.13769 -78.25990 14943 ft 372 kts 104°
2026-04-23 00:29 39.12998 -78.22823 14584 ft 368 kts 104°
2026-04-23 00:29 39.12232 -78.19693 14234 ft 366 kts 104°
2026-04-23 00:29 39.11454 -78.16588 14029 ft 362 kts 105°
2026-04-23 00:29 39.10671 -78.13472 14031 ft 367 kts 105°
2026-04-23 00:30 39.09895 -78.10361 14035 ft 366 kts 105°
2026-04-23 00:30 39.09105 -78.07245 14033 ft 367 kts 105°
2026-04-23 00:30 39.08301 -78.04124 14033 ft 366 kts 105°
2026-04-23 00:30 39.07513 -78.01052 14035 ft 366 kts 105°
2026-04-23 00:31 39.06721 -77.97945 14039 ft 366 kts 105°
2026-04-23 00:31 39.05926 -77.94832 14041 ft 366 kts 105°
2026-04-23 00:31 39.05129 -77.91728 14035 ft 366 kts 105°
2026-04-23 00:31 39.04329 -77.88619 14006 ft 365 kts 105°
2026-04-23 00:32 39.03537 -77.85543 13202 ft 359 kts 105°
2026-04-23 00:32 39.02755 -77.82508 12141 ft 354 kts 105°
2026-04-23 00:32 39.01990 -77.79538 11119 ft 344 kts 105°
2026-04-23 00:32 39.01249 -77.76670 10309 ft 330 kts 105°
2026-04-23 00:33 39.00549 -77.73964 10061 ft 311 kts 105°
2026-04-23 00:33 38.99872 -77.71332 10020 ft 308 kts 105°
2026-04-23 00:33 38.99196 -77.68715 10022 ft 308 kts 105°
2026-04-23 00:33 38.98527 -77.66135 10016 ft 308 kts 106°
2026-04-23 00:34 38.97754 -77.63567 9938 ft 311 kts 109°
2026-04-23 00:34 38.97001 -77.60954 9617 ft 311 kts 107°
2026-04-23 00:34 38.96264 -77.58338 9171 ft 313 kts 108°
2026-04-23 00:34 38.95489 -77.55714 8740 ft 315 kts 109°
2026-04-23 00:35 38.94728 -77.53070 8330 ft 315 kts 102°
2026-04-23 00:35 38.94713 -77.50379 8018 ft 292 kts 67°
2026-04-23 00:35 38.95453 -77.48080 7983 ft 266 kts 61°
2026-04-23 00:35 38.96196 -77.46004 7974 ft 247 kts 61°
2026-04-23 00:36 38.96884 -77.43992 7987 ft 248 kts 62°
2026-04-23 00:36 38.97556 -77.41964 7983 ft 246 kts 63°
2026-04-23 00:36 38.98227 -77.39937 7986 ft 246 kts 62°
2026-04-23 00:36 38.98908 -77.37906 7820 ft 253 kts 62°
2026-04-23 00:37 38.99574 -77.35696 7446 ft 278 kts 71°
2026-04-23 00:37 38.99875 -77.33219 7215 ft 283 kts 86°
2026-04-23 00:37 38.99822 -77.30874 7092 ft 247 kts 91°
2026-04-23 00:37 38.99520 -77.28735 6351 ft 244 kts 102°
2026-04-23 00:38 38.99104 -77.26604 5461 ft 247 kts 102°
2026-04-23 00:38 38.98662 -77.24474 4678 ft 243 kts 103°
2026-04-23 00:38 38.98250 -77.22392 4067 ft 240 kts 102°
2026-04-23 00:38 38.97890 -77.20303 3597 ft 238 kts 101°
2026-04-23 00:39 38.97531 -77.18248 3213 ft 234 kts 103°
2026-04-23 00:39 38.97089 -77.16235 2890 ft 233 kts 110°
2026-04-23 00:39 38.96322 -77.14423 2452 ft 225 kts 129°
2026-04-23 00:39 38.95187 -77.13182 2130 ft 204 kts 144°
2026-04-23 00:40 38.94124 -77.12121 1926 ft 189 kts 145°
2026-04-23 00:40 38.93110 -77.11088 1765 ft 184 kts 146°
2026-04-23 00:40 38.92095 -77.10076 1665 ft 185 kts 146°
2026-04-23 00:40 38.91081 -77.09077 1445 ft 181 kts 146°
2026-04-23 00:41 38.90075 -77.08127 1256 ft 173 kts 147°
2026-04-23 00:41 38.89139 -77.07254 983 ft 161 kts 147°
2026-04-23 00:41 38.88223 -77.06474 1059 ft 154 kts 161°
2026-04-23 00:41 38.87538 -77.06279 1173 ft 153 kts 175°
2026-04-23 00:42 38.86452 -77.06197 1275 ft 159 kts 180°
2026-04-23 00:42 38.85337 -77.06106 1406 ft 163 kts 179°
2026-04-23 00:42 38.84204 -77.06087 1582 ft 161 kts 189°
2026-04-23 00:42 38.82832 -77.06637 1908 ft 152 kts 207°
2026-04-23 00:43 38.82051 -77.07514 2058 ft 153 kts 237°
2026-04-23 00:43 38.81519 -77.08689 2235 ft 153 kts 239°
2026-04-23 00:43 38.81135 -77.09466 2360 ft 154 kts 238°
2026-04-23 00:43 38.80559 -77.10646 2483 ft 157 kts 240°
2026-04-23 00:44 38.80054 -77.11864 2703 ft 153 kts 252°
2026-04-23 00:44 38.79869 -77.13159 2917 ft 149 kts 271°
2026-04-23 00:44 38.80160 -77.14473 3066 ft 159 kts 295°
2026-04-23 00:44 38.80795 -77.15655 3434 ft 166 kts 307°
2026-04-23 00:45 38.81552 -77.16834 3761 ft 176 kts 309°
2026-04-23 00:45 38.82354 -77.18043 4177 ft 180 kts 309°
2026-04-23 00:45 38.83161 -77.19264 4649 ft 179 kts 309°
2026-04-23 00:45 38.83978 -77.20525 4926 ft 190 kts 309°
2026-04-23 00:46 38.84847 -77.21885 5056 ft 205 kts 308°
2026-04-23 00:46 38.85779 -77.23390 5053 ft 221 kts 307°
2026-04-23 00:46 38.86753 -77.24978 5110 ft 233 kts 309°
2026-04-23 00:46 38.87914 -77.26476 4965 ft 241 kts 327°
2026-04-23 00:47 38.89464 -77.27118 5138 ft 238 kts 352°
2026-04-23 00:47 38.91111 -77.26793 4807 ft 241 kts
2026-04-23 00:47 38.92760 -77.26933 4610 ft 232 kts 346°
2026-04-23 00:47 38.94315 -77.27280 4317 ft 225 kts 352°
2026-04-23 00:48 38.95875 -77.26982 3903 ft 231 kts 17°
2026-04-23 00:48 38.97172 -77.25768 3522 ft 238 kts 47°
2026-04-23 00:48 38.97931 -77.23898 3305 ft 237 kts 68°
2026-04-23 00:48 38.98264 -77.21793 3029 ft 245 kts 84°
2026-04-23 00:49 38.98095 -77.19629 2953 ft 241 kts 105°
2026-04-23 00:49 38.97454 -77.17662 2868 ft 239 kts 120°
2026-04-23 00:49 38.96529 -77.15918 2713 ft 239 kts 132°
2026-04-23 00:49 38.95404 -77.14394 2351 ft 227 kts 137°
2026-04-23 00:50 38.94328 -77.13012 1826 ft 206 kts 139°
2026-04-23 00:50 38.93433 -77.11799 1647 ft 175 kts 134°
2026-04-23 00:50 38.92632 -77.10690 1582 ft 167 kts 135°
2026-04-23 00:50 38.91848 -77.09567 1565 ft 169 kts 134°
2026-04-23 00:51 38.91101 -77.08430 1584 ft 164 kts 133°
2026-04-23 00:51 38.90386 -77.07317 1527 ft 160 kts 135°
2026-04-23 00:51 38.89649 -77.06229 1379 ft 163 kts 135°
2026-04-23 00:51 38.88880 -77.05127 1132 ft 168 kts 137°
2026-04-23 00:52 38.87993 -77.04194 742 ft 161 kts 160°
2026-04-23 00:52 38.86940 -77.03937 318 ft 148 kts 175°
2026-04-23 00:52 38.85965 -77.03849 56 ft 134 kts 177°
2026-04-23 00:52 38.85182 -77.03777 27 ft 81 kts 175°
2026-04-23 00:53 38.84829 -77.03746 26 ft 26 kts 182°
2026-04-23 00:53 38.84765 -77.03766 25 ft 1 kts 210°
2026-04-23 00:53 38.84731 -77.03806 28 ft 1 kts 241°
2026-04-23 00:54 38.84725 -77.03857 26 ft 11 kts 276°
2026-04-23 00:54 38.84737 -77.03904 28 ft 0 kts 294°
2026-04-23 00:54 38.84748 -77.03935 27 ft 14 kts 297°
2026-04-23 00:55 38.84817 -77.04006 28 ft 12 kts 332°
2026-04-23 00:55 38.84858 -77.04034 28 ft 9 kts 310°
2026-04-23 00:55 38.84875 -77.04069 24 ft 0 kts 296°